TimeEST,TemperatureF,Dew PointF,Humidity,Sea Level PressureIn,VisibilityMPH,Wind Direction,Wind SpeedMPH,Gust SpeedMPH,PrecipitationIn,Events,Conditions,WindDirDegrees,DateUTC
12:52 AM,32.0,21.0,64,29.90,10.0,WSW,5.8,-,N/A,,Partly Cloudy,240,2012-11-26 05:52:00
1:52 AM,33.1,21.0,61,29.91,10.0,WSW,6.9,-,N/A,,Clear,240,2012-11-26 06:52:00
2:52 AM,34.0,21.0,59,29.92,10.0,WSW,4.6,-,N/A,,Overcast,250,2012-11-26 07:52:00
3:52 AM,33.1,21.0,61,29.93,10.0,WSW,4.6,-,N/A,,Mostly Cloudy,250,2012-11-26 08:52:00
4:52 AM,32.0,19.9,61,29.94,10.0,WSW,3.5,-,N/A,,Scattered Clouds,250,2012-11-26 09:52:00
5:52 AM,28.0,21.0,75,29.95,10.0,SSW,4.6,-,N/A,,Clear,210,2012-11-26 10:52:00
6:52 AM,30.9,21.0,67,29.96,10.0,WSW,3.5,-,N/A,,Overcast,240,2012-11-26 11:52:00
7:52 AM,34.0,21.0,59,29.98,10.0,West,4.6,-,N/A,,Clear,280,2012-11-26 12:52:00
8:52 AM,39.0,23.0,53,30.00,10.0,West,6.9,-,N/A,,Clear,260,2012-11-26 13:52:00
9:52 AM,43.0,21.9,43,30.01,10.0,West,11.5,21.9,N/A,,Clear,260,2012-11-26 14:52:00
10:52 AM,45.0,21.9,40,30.01,10.0,West,13.8,18.4,N/A,,Clear,270,2012-11-26 15:52:00
11:52 AM,46.9,21.9,37,30.01,10.0,West,11.5,20.7,N/A,,Clear,280,2012-11-26 16:52:00
12:52 PM,48.0,21.0,34,30.03,10.0,West,11.5,23.0,N/A,,Clear,280,2012-11-26 17:52:00
1:52 PM,46.9,19.0,33,30.04,10.0,WNW,10.4,23.0,N/A,,Clear,300,2012-11-26 18:52:00
2:52 PM,46.0,18.0,33,30.06,10.0,WNW,11.5,19.6,N/A,,Clear,300,2012-11-26 19:52:00
3:52 PM,45.0,17.1,33,30.09,10.0,WNW,6.9,17.3,N/A,,Clear,300,2012-11-26 20:52:00
4:52 PM,39.0,18.0,43,30.11,10.0,West,4.6,-,N/A,,Clear,260,2012-11-26 21:52:00
5:52 PM,28.9,19.9,69,30.15,10.0,SW,4.6,-,N/A,,Clear,230,2012-11-26 22:52:00
6:52 PM,32.0,19.9,61,30.18,10.0,WSW,3.5,-,N/A,,Clear,240,2012-11-26 23:52:00
7:52 PM,28.9,19.9,69,30.20,10.0,Calm,Calm,-,N/A,,Clear,0,2012-11-27 00:52:00
8:52 PM,27.0,19.9,75,30.22,10.0,Calm,Calm,-,N/A,,Clear,0,2012-11-27 01:52:00
9:52 PM,25.0,19.9,81,30.23,10.0,Calm,Calm,-,N/A,,Clear,0,2012-11-27 02:52:00
10:52 PM,24.1,19.9,84,30.25,10.0,Calm,Calm,-,N/A,,Clear,0,2012-11-27 03:52:00
11:52 PM,23.0,19.0,85,30.25,10.0,Calm,Calm,-,N/A,,Clear,0,2012-11-27 04:52:00